Portada
METAR-TAF:

METAR-TAF

Aeroports :

Thimphu, Índia

latitud: 27-24-32N, longitud: 89-25-14E, altitud: 2235 m

Observació

L'informe es va fer fa 5 hores i 12 minuts, a les 11:00 UTC
Vent 18 kt del Sud/Sud-Est
Temperatura 5°C
Humitat 60%
Pressió 1019 hPa
Visibilitat: 6000 m
Núvols disperses a una alçada de 2000 ft
Cel ennuvolat a una alçada de 6000 ft

METAR: VQPR 191100Z 15018KT 6000 SCT020 BKN060 05/M02 Q1019

Hora: 22:12 (16:12 UTC)


TAF: manca

Observacions i pronòstics meteorològics de més de 4000 aeroports (METAR i TAF).

Les estacions disponibles són els punts grocs i vermells al mapa.

Posi el ratolí al punt desitjat per veure el nom de l'estació.

Feu clic per veure les observacions i els pronòstics meteorològics.

Per canviar el mapa: feu clic els botons verds amb una creu de color negre per apropar; al botó verd amb un guió per allunyar la imatge; o en les fletxes verdes per a mapes adjacents.


METAR-TAF: